Weather History for Haines, AK

Change the Weather History Date:

Sunday, February 3, 2013

  Actual Average Record
Temperature  
Mean Temperature 37 °F -  
Max Temperature 39 °F 29 °F 46 °F (2012)
Min Temperature 35 °F 21 °F 2 °F (1993)
Degree Days  
Heating Degree Days 28    
Moisture  
Dew Point 35 °F    
Average Humidity 91    
Maximum Humidity 93    
Minimum Humidity 86    
Precipitation  
Precipitation 0.19 in - - ()
Sea Level Pressure  
Sea Level Pressure 29.64 in    
Wind  
Wind Speed 13 mph (East)    
Max Wind Speed 18 mph    
Max Gust Speed 33 mph    
Visibility 10 miles    
Events Rain    
Averages and records for this station are not official NWS values.
T = Trace of Precipitation, MM = Missing Value Source: NWS Daily Summary

Daily Weather History Graph

Daily Weather History Graph

Search for Another Location

Airport:

Trip Planner

Search our weather history database for the weather conditions in past years. The results will help you decide how hot, cold, wet, or windy it might be!

Date:

Astronomy

Feb. 03, 2013 Rise Set
Actual Time 8:06 AM AKST 4:26 PM AKST
Civil Twilight 7:20 AM AKST 5:11 PM AKST
Nautical Twilight 6:31 AM AKST 6:01 PM AKST
Astronomical Twilight 5:44 AM AKST 6:48 PM AKST
Moon 1:49 AM AKST (2/3) 9:57 AM AKST (2/3)
Length of Visible Light 9h 51m
Length of Day
8h 20m
Waning Gibbous, 47% of the Moon is Illuminated
Feb 3
Waning Gibbous
Feb 9
New
Feb 17
First Quarter
Feb 25
Full
Mar 4
Last Quarter

Hourly Weather History & Observations

Time (AKST) Temp. Windchill Dew Point Humidity Pressure Visibility Wind Dir Wind Speed Gust Speed Precip Events Conditions
12:54 AM 39.0 °F 31.0 °F 37.0 °F 93% 29.78 in 10.0 mi East 13.8 mph 27.6 mph N/A   Overcast
1:41 AM 39.2 °F 31.6 °F 37.4 °F 93% 29.76 in 10.0 mi East 12.7 mph 21.9 mph N/A   Overcast
1:54 AM 39.9 °F 32.1 °F 36.0 °F 86% 29.76 in 10.0 mi East 13.8 mph 20.7 mph N/A   Overcast
2:54 AM 39.0 °F 31.0 °F 36.0 °F 89% 29.73 in 10.0 mi ENE 13.8 mph 21.9 mph 0.00 in Rain Light Rain
3:41 AM 37.4 °F 28.9 °F 35.6 °F 93% 29.69 in 10.0 mi East 13.8 mph 31.1 mph 0.01 in Rain Light Rain
3:54 AM 37.9 °F 29.2 °F 35.1 °F 89% 29.69 in 8.0 mi East 15.0 mph 25.3 mph 0.01 in Rain Light Rain
4:02 AM 37.4 °F 29.8 °F 35.6 °F 93% 29.68 in 7.0 mi East 11.5 mph 23.0 mph 0.01 in Rain Light Rain
4:54 AM 37.0 °F 28.5 °F 35.1 °F 93% 29.65 in 10.0 mi East 13.8 mph 24.2 mph 0.03 in Rain Light Rain
5:54 AM 37.9 °F 28.2 °F 35.1 °F 89% 29.62 in 10.0 mi ENE 18.4 mph 26.5 mph 0.03 in Rain Light Rain
6:54 AM 37.9 °F 28.9 °F 35.1 °F 89% 29.59 in 10.0 mi East 16.1 mph 28.8 mph 0.02 in Rain Light Rain
7:43 AM 37.4 °F 28.5 °F 35.6 °F 93% 29.57 in 10.0 mi East 15.0 mph 21.9 mph 0.01 in Rain Light Rain
7:54 AM 37.0 °F 27.7 °F 35.1 °F 93% 29.58 in 10.0 mi ENE 16.1 mph 25.3 mph 0.02 in Rain Light Rain
8:08 AM 37.4 °F 28.9 °F 33.8 °F 87% 29.56 in 10.0 mi East 13.8 mph 26.5 mph 0.00 in Rain Light Rain
8:25 AM 37.4 °F 28.5 °F 35.6 °F 93% 29.56 in 10.0 mi ENE 15.0 mph 26.5 mph 0.01 in Rain Light Rain
8:54 AM 37.9 °F 28.5 °F 35.1 °F 89% 29.56 in 9.0 mi ENE 17.3 mph 25.3 mph 0.04 in Rain Light Rain
9:54 AM 37.9 °F 29.2 °F 35.1 °F 89% 29.56 in 10.0 mi East 15.0 mph 28.8 mph 0.03 in Rain Light Rain
10:02 AM 37.4 °F 28.9 °F 35.6 °F 93% 29.55 in 10.0 mi East 13.8 mph 26.5 mph 0.00 in Rain Light Rain
10:54 AM 37.9 °F 29.6 °F 35.1 °F 89% 29.56 in 10.0 mi East 13.8 mph 26.5 mph 0.00 in Rain Light Rain
11:44 AM 37.4 °F 30.3 °F 35.6 °F 93% 29.56 in 10.0 mi East 10.4 mph 23.0 mph 0.00 in Rain Light Rain
11:54 AM 37.0 °F 30.4 °F 35.1 °F 93% 29.57 in 10.0 mi East 9.2 mph 17.3 mph 0.00 in Rain Light Rain
12:11 PM 37.4 °F 30.3 °F 35.6 °F 93% 29.57 in 10.0 mi ESE 10.4 mph 23.0 mph 0.00 in Rain Light Rain
12:46 PM 37.4 °F 31.4 °F 35.6 °F 93% 29.58 in 10.0 mi East 8.1 mph 29.9 mph 0.01 in Rain Light Rain
12:54 PM 37.9 °F 31.5 °F 35.1 °F 89% 29.59 in 10.0 mi East 9.2 mph 19.6 mph 0.01 in   Overcast
1:54 PM 37.9 °F 28.9 °F 35.1 °F 89% 29.60 in 10.0 mi East 16.1 mph 25.3 mph N/A   Overcast
2:04 PM 37.4 °F 29.3 °F 35.6 °F 93% 29.59 in 10.0 mi ESE 12.7 mph 27.6 mph N/A   Overcast
2:34 PM 37.4 °F 29.3 °F 35.6 °F 93% 29.60 in 10.0 mi East 12.7 mph 20.7 mph 0.00 in Rain Light Rain
2:54 PM 37.9 °F 30.9 °F 35.1 °F 89% 29.61 in 10.0 mi ESE 10.4 mph 21.9 mph 0.00 in   Overcast
3:29 PM 37.4 °F 29.3 °F 35.6 °F 93% 29.60 in 10.0 mi East 12.7 mph 23.0 mph 0.00 in Rain Light Rain
3:43 PM 37.4 °F 29.8 °F 35.6 °F 93% 29.60 in 10.0 mi East 11.5 mph 21.9 mph 0.00 in   Overcast
3:54 PM 37.0 °F 28.9 °F 35.1 °F 93% 29.61 in 10.0 mi ESE 12.7 mph 23.0 mph 0.00 in   Overcast
4:54 PM 37.0 °F 31.0 °F 34.0 °F 89% 29.62 in 10.0 mi East 8.1 mph 33.4 mph N/A   Overcast
5:54 PM 37.0 °F 29.3 °F 34.0 °F 89% 29.63 in 10.0 mi East 11.5 mph 24.2 mph N/A   Overcast
6:29 PM 37.4 °F 30.8 °F 33.8 °F 87% 29.63 in 10.0 mi ESE 9.2 mph 20.7 mph N/A   Overcast
6:54 PM 37.0 °F 28.5 °F 34.0 °F 89% 29.64 in 10.0 mi East 13.8 mph 21.9 mph 0.00 in   Overcast
7:54 PM 36.0 °F 28.0 °F 34.0 °F 93% 29.66 in 10.0 mi East 11.5 mph 19.6 mph 0.00 in Rain Light Rain
8:03 PM 35.6 °F 28.6 °F 33.8 °F 93% 29.66 in 10.0 mi East 9.2 mph 20.7 mph 0.00 in Rain Light Rain
8:24 PM 37.4 °F 29.3 °F 33.8 °F 87% 29.66 in 10.0 mi ESE 12.7 mph - 0.00 in Rain Light Rain
8:34 PM 37.4 °F 30.8 °F 33.8 °F 87% 29.66 in 10.0 mi East 9.2 mph 18.4 mph 0.00 in   Overcast
8:54 PM 37.0 °F 30.4 °F 34.0 °F 89% 29.68 in 10.0 mi East 9.2 mph - 0.00 in   Overcast
9:03 PM 35.6 °F 28.6 °F 33.8 °F 93% 29.67 in 10.0 mi East 9.2 mph - N/A   Overcast
9:21 PM 35.6 °F 28.0 °F 33.8 °F 93% 29.68 in 10.0 mi East 10.4 mph 18.4 mph N/A   Overcast
9:33 PM 35.6 °F 27.5 °F 33.8 °F 93% 29.68 in 10.0 mi ESE 11.5 mph 16.1 mph N/A   Overcast
9:54 PM 36.0 °F 28.0 °F 34.0 °F 93% 29.70 in 10.0 mi East 11.5 mph 18.4 mph N/A   Overcast
10:10 PM 35.6 °F 29.2 °F 33.8 °F 93% 29.69 in 10.0 mi East 8.1 mph 19.6 mph N/A   Overcast
10:29 PM 35.6 °F 28.6 °F 33.8 °F 93% 29.70 in 10.0 mi East 9.2 mph 23.0 mph N/A   Overcast
10:54 PM 36.0 °F 28.5 °F 33.1 °F 89% 29.72 in 10.0 mi ESE 10.4 mph 17.3 mph 0.00 in Rain Light Rain
11:54 PM 36.0 °F 29.0 °F 34.0 °F 93% 29.73 in 10.0 mi East 9.2 mph - 0.00 in   Overcast